Regional Weather Roundup
Issued by NWS

Home | Current Version | Previous Version | Graphics & Text | Print | Product List | Glossary On
Versions: 1 2 3 4 5 6 7 8 9 10 11 12 13 14 15 16 17 18 19 20 21 22 23 24 25 26 27
000
ASUS45 KBOU 252110
RWRCO

WEATHER ROUNDUP FOR COLORADO
NATIONAL WEATHER SERVICE DENVER/BOULDER CO
300 PM MDT FRI MAY 25 2018

NOTE: "FAIR" INDICATES FEW OR NO CLOUDS BELOW 12000 FEET WITH NO
SIGNIFICANT WEATHER AND/OR OBSTRUCTIONS TO VISIBILITY.

COZ001>005-013-030-031-252200-
...NORTHWEST COLORADO...

CITY           SKY/WX    TMP DP  RH WIND       PRES   REMARKS
CRAIG          FAIR      84  29  13 SW7       30.07F
HAYDEN         FAIR      78  30  17 N6        30.12F
MEEKER         FAIR      83  18   9 S14G20    30.08F
RANGELY        FAIR      89  19   7 SW18G25   29.99F
RABBIT EARS PA FAIR      61  27  27 CALM      30.41F
STEAMBOAT SPGS FAIR      77  31  18 S3        30.13F
WALDEN         FAIR      73  19  13 SW9G18    30.23F
$$

COZ006>008-011-252200-
...WEST CENTRAL VALLEYS...

CITY           SKY/WX    TMP DP  RH WIND       PRES   REMARKS
GRAND JUNCTION FAIR      91  14   6 W21G28    29.97F
MONTROSE       FAIR      88   3   4 W13G26    30.04F
EAGLE          FAIR      83  19   9 SW16G25   30.11F
RIFLE          FAIR      88  18   7 NW7G22    30.02F
DELTA          FAIR      91  15   6 SE8       30.00F
NUCLA          FAIR      86   5   4 SW21G30   30.13F
$$

COZ017>023-064>068-252200-
...SOUTHWEST COLORADO...

CITY           SKY/WX    TMP DP  RH WIND       PRES   REMARKS
DURANGO        FAIR      82   9   6 W9G26     30.17F
CORTEZ         FAIR      85  16   7 SW14      30.12F
PAGOSA SPRINGS FAIR      78   2   5 W14G21    30.26F
TELLURIDE      FAIR      73  12   9 SE6       30.32F
WOLF CREEK PAS FAIR      55  18  22 S17G35    30.58F
$$

COZ009-010-012-014-032>034-037-058>063-252200-
...CENTRAL COLORADO...

CITY           SKY/WX    TMP DP  RH WIND       PRES   REMARKS
ASPEN          FAIR      78  12   8 SW15G25   30.19F
BUENA VISTA    FAIR      80   4   5 CALM      30.19F
COPPER MTN     FAIR      59  10  14 CALM      30.53F
BERTHOUD PASS  FAIR      50  37  62 W14G21    30.57F
COTTONWOOD PAS FAIR      73 -11   3 W9G21     30.35F
GUNNISON       FAIR      79  18  10 W8G20     30.18F
GRANBY         FAIR      73  25  16 CALM      30.24F
KREMMLING      FAIR      84   7   5 W6        30.18F
LEADVILLE      FAIR      68  14  12 W12G20    30.35F
MONARCH PASS   FAIR      63  12  14 MISG      30.62F
SALIDA         FAIR      82  11   7 SE10G16   30.23F
SUNLIGHT       FAIR      64  16  15 SW12G18   30.45F
WILKERSON PASS FAIR      64   9  11 W5        30.50F
$$

COZ069>075-252200-
...SAN LUIS VALLEY/SANGRE DE CRISTO MOUNTAINS...

CITY           SKY/WX    TMP DP  RH WIND       PRES   REMARKS
ALAMOSA        FAIR      82  14   8 MISG      30.19F
DEL NORTE      NOT AVBL
LA VETA PASS   FAIR      72  18  13 SW13      30.53S
SAGUACHE       NOT AVBL
$$

COZ035-036-038>040-252200-
...NORTHERN COLORADO FRONT RANGE...

CITY           SKY/WX    TMP DP  RH WIND       PRES   REMARKS
DENVER INTL AP FAIR      89  31  12 N8        30.03F
AURORA         NOT AVBL
FRONT RANGE AP MOSUNNY   90  27  10 W3        30.05F
ERIE MUNI ARPT FAIR      87  26  10 SE5       30.05F
BOULDER MUN AP FAIR      84  36  17 E3        30.01F
CENTENNIAL     FAIR      87  30  13 E17G31    30.05F
BROOMFIELD     MOSUNNY   86  30  13 NE3       30.05F
FORT COLLINS   FAIR      88  39  17 E7        30.02F
LONGMONT       FAIR      90  32  12 E3        30.02F
$$

COZ041-046-047-076>085-087-088-252200-
...PIKES PEAK/PALMER DIVIDE AND SOUTHERN FOOTHILLS...

CITY           SKY/WX    TMP DP  RH WIND       PRES   REMARKS
COLO. SPRINGS  FAIR      85  24  11 SE15      30.09F
A. F. ACADEMY  FAIR      83  23  11 SE14G23   30.10F
SCHRIEVER AFB  NOT AVBL
CHEYENNE MTN   PTSUNNY   78  23  13 SE17      30.09F
ELLICOTT         N/A    N/A N/A N/A SW10G16   30.09F
FALCON         FAIR      84  21  10 SW6G20    30.15F
FORT CARSON    NOT AVBL
LIMON          FAIR      85  32  15 SE7       30.04F
MONUMENT HILL  FAIR      79  28  15 W3        30.16F
CANON CITY     SUNNY     91  34  13 SE7G21    30.01F
WALSENBURG     FAIR      91  18   6 SW7G21    30.06F
TRINIDAD       FAIR      87  29  12 E9        30.06F
$$

COZ042>045-048>051-090-091-252200-
...NORTHEAST COLORADO...

CITY           SKY/WX    TMP DP  RH WIND       PRES   REMARKS
GREELEY ARPT   FAIR      89  33  13 SE10      30.00F
AKRON          FAIR      86  44  23 VRB6      30.01F
BURLINGTON     FAIR      86  46  24 SE13      29.98F
WRAY           FAIR      91  34  13 CALM      29.95S
YUMA           FAIR      86  43  22 SW7       29.97F
STERLING       FAIR      88  37  16 S5        29.95F
HOLYOKE        FAIR      95  37  13 W8        29.95F
FORT MORGAN    FAIR      89  25  10 W7        30.00F
$$

COZ086-089-092>099-252200-
...SOUTHEAST COLORADO...

CITY           SKY/WX    TMP DP  RH WIND       PRES   REMARKS
PUEBLO         FAIR      92  34  13 CALM      29.97F
LA JUNTA       FAIR      92  34  13 VRB7G17   29.97F
LAMAR          FAIR      93  38  14 VRB3      29.93F
SPRINGFIELD      N/A     90  46  21 E12G21    29.99F
$$




USA.gov is the U.S. government's official web portal to all federal, state and local government web resources and services.